Volver al catálogo

CZ-6A DEB

ActivoSSO
NORAD 54925·DEBRIS·🇨🇳 China

Lanzado Nov 11, 2022 desde Taiyuan Satellite Launch Center

Loading…

Próximos Pases (próximas 24 horas)

TLE

ActualizadoSource: Space-Track

Época: Sep 14, 2026, 11:07 UTC

1 54925U 22151RN  26257.46336005  .00000681  00000-0  38125-3 0  9992
2 54925  98.8399 261.7824 0042244  71.5963 288.9796 14.13553367197307

Sigue CZ-6A DEB en tiempo real con AllMySat

Download on the App Store